Lid_Strength_Index
2 3 4 6 5 3 2 1 2 2 1 1 1 1 0 0 0 1 0 0 1 1 1 1 1 1 1 2 2 2 3 3 4 2 2 1 1 0 -0 -1 -1 -1 -1
2 3 4 5 5 3 2 1 1 2 2 1 1 1 0 1 1 0 1 0 1 1 1 1 1 1 1 1 2 2 2 2 3 3 2 2 1 0 -0 -0 -0 -1 -1
2 4 5 5 5 3 1 1 2 2 1 1 0 1 1 1 0 0 0 1 1 1 1 1 1 1 1 1 1 1 1 1 2 3 3 1 1 0 1 -0 -0 -0 -0
2 4 5 5 5 3 2 1 2 1 1 1 1 1 1 1 0 0 1 1 1 1 0 1 1 1 1 1 1 1 1 1 1 2 2 2 2 1 1 2 2 1 1
3 3 4 4 4 4 2 1 1 1 1 0 1 1 1 0 0 0 1 1 1 1 1 0 0 0 0 0 1 1 1 2 2 3 3 3 2 2 3 1 2 1 1
2 3 2 3 4 3 2 2 1 2 2 2 1 1 1 1 2 2 1 1 1 1 1 1 1 0 0 0 0 0 0 1 2 3 3 3 3 2 1 2 2 3 4
2 2 3 4 4 3 3 1 2 2 1 1 1 1 1 1 3 3 2 0 1 1 1 1 1 1 0 0 0 0 0 0 0 1 2 2 2 1 1 2 2 2 3
3 2 3 4 4 3 3 2 2 2 1 1 1 1 1 1 4 4 2 0 1 1 2 2 2 1 1 1 1 1 1 1 1 1 1 1 0 0 0 1 2 3 3
3 3 3 4 4 3 3 2 1 2 1 1 1 1 2 1 4 4 3 1 1 1 2 2 2 1 2 2 1 2 2 2 2 1 1 1 0 0 0 1 3 4 5
3 3 3 3 3 3 2 2 1 1 1 1 2 1 2 1 4 5 3 1 2 2 2 1 2 2 3 4 2 2 3 3 3 2 1 1 0 1 1 0 1 4 5
3 3 3 3 3 3 3 2 2 2 3 2 2 1 1 1 2 4 5 2 2 2 2 2 2 3 4 5 4 3 3 3 3 3 3 3 2 3 2 1 1 3 5
4 4 4 3 2 3 3 3 2 2 2 2 2 2 1 1 6 5 6 5 3 2 3 2 2 5 5 5 3 4 5 4 4 4 4 4 4 3 3 2 3 3 3
6 5 5 4 4 3 3 3 3 2 2 2 2 3 3 3 4 6 6 6 5 4 3 4 5 6 5 4 4 5 5 4 4 6 6 5 4 2 2 3 3 3 4
5 5 5 5 4 2 2 3 3 2 3 3 3 3 3 4 4 5 5 5 5 4 5 3 4 3 4 5 5 6 5 5 6 6 6 5 3 3 4 4 5 5 6
4 4 4 3 3 4 8 6 2 4 3 3 3 3 4 5 5 6 6 4 4 5 5 3 3 4 5 6 6 7 7 7 7 6 6 5 5 5 5 4 5 5 6
3 4 4 4 3 5 6 7 10 11 12 12 11 6 6 7 10 10 10 10 10 9 4 3 4 6 6 7 8 8 8 8 8 7 8 7 7 7 6 5 5 6 7
4 4 3 3 4 4 4 5 6 9 12 13 11 10 9 10 10 10 10 10 10 7 4 5 6 7 7 8 9 9 9 9 9 9 8 8 8 8 7 6 5 6 7
3 5 2 2 2 3 3 4 5 6 6 6 10 10 11 11 9 10 10 8 5 6 6 7 7 8 9 9 9 10 9 9 9 10 10 9 9 8 8 7 7 7 8
2 2 2 2 4 5 4 5 5 6 6 6 6 8 10 10 9 9 9 5 5 6 7 8 9 9 8 8 9 10 9 9 9 10 10 10 9 9 8 7 7 8 6
2 4 4 4 4 5 5 5 5 5 6 5 5 4 5 5 5 5 5 5 6 7 7 7 8 8 8 10 10 10 9 9 9 10 10 10 9 9 8 8 7 7 6
3 3 3 3 4 4 4 4 4 4 4 4 4 4 7 4 5 5 5 5 5 6 6 6 7 7 10 11 9 9 9 9 9 10 10 10 9 9 8 8 8 7 7
2 2 2 3 3 4 4 4 4 3 4 4 4 4 8 4 4 4 5 5 5 4 5 7 8 10 10 10 10 9 10 10 9 9 9 9 9 8 8 8 8 8 7
3 3 3 3 3 4 3 3 3 3 3 3 4 4 5 4 5 4 4 4 4 6 7 8 9 10 11 10 10 10 10 10 10 10 10 9 9 8 8 8 8 8 8
3 3 3 3 3 3 3 3 3 5 3 3 4 4 4 4 4 4 4 5 6 7 8 8 9 10 10 11 10 10 10 10 9 9 9 9 8 8 8 8 8 8 8
3 3 3 3 3 4 4 3 3 3 3 3 3 4 4 4 4 5 5 6 6 7 8 8 9 10 11 11 11 11 11 13 10 11 8 8 8 8 8 8 8 8 8
3 3 3 3 3 3 4 4 4 4 3 2 2 3 3 4 3 4 4 5 6 7 8 8 9 10 10 10 10 11 13 12 10 12 8 7 8 8 8 8 8 8 8